Copper Mountain, CO

6:35 PM MDT on October 17, 2017 (GMT -0600)
Copper Mountain

Weather History for KCCU - May, 2013

Change the Weather History Date:

Sunday, May 12, 2013

  Actual Average Record
Temperature  
Mean Temperature 42 °F -  
Max Temperature 50 °F - 54 °F (2017)
Min Temperature 33 °F - 17 °F (2014)
Degree Days  
Heating Degree Days 24    
Month to date heating degree days  
Cooling Degree Days 0    
Month to date cooling degree days  
Moisture  
Dew Point 24 °F    
Average Humidity 54    
Maximum Humidity 87    
Minimum Humidity 32    
Precipitation  
Precipitation 0.04 in - 0.44 in (2002)
Sea Level Pressure  
Sea Level Pressure 30.58 in    
Wind  
Wind Speed 19 mph (West)    
Max Wind Speed 30 mph    
Max Gust Speed 37 mph    
Visibility 10 miles    
Events Snow    
T = Trace of Precipitation, MM = Missing Value Source: NWS Daily Summary

Daily Weather History Graph

Daily Weather History Graph

Search for Another Location

Airport or City:

Trip Planner

Search our weather history database for the weather conditions in past years. The results will help you decide how hot, cold, wet, or windy it might be!

Date:

Astronomy

May. 12, 2013 Rise Set
Actual Time 5:53 AM MDT 8:09 PM MDT
Civil Twilight 5:23 AM MDT 8:39 PM MDT
Nautical Twilight 4:46 AM MDT 9:16 PM MDT
Astronomical Twilight 4:05 AM MDT 9:57 PM MDT
Moon 7:50 AM MDT (5/12) 10:38 PM MDT (5/12)
Length of Visible Light 15h 16m
Length of Day
14h 16m
Waxing Crescent, 7% of the Moon is Illuminated
May 12
Waxing Crescent
May 17
First Quarter
May 24
Full
May 31
Last Quarter
Jun 8
New

Hourly Weather History & Observations

Time (MDT) Temp. Windchill Dew Point Humidity Pressure Visibility Wind Dir Wind Speed Gust Speed Precip Events Conditions
12:12 AM 33.8 °F 23.5 °F 23.0 °F 65% 30.57 in 10.0 mi West 16.1 mph - N/A   Mostly Cloudy
12:32 AM 33.8 °F 23.5 °F 21.2 °F 60% 30.57 in 10.0 mi West 16.1 mph 19.6 mph N/A   Scattered Clouds
12:52 AM 35.6 °F 24.2 °F 21.2 °F 56% 30.56 in 10.0 mi West 21.9 mph 27.6 mph N/A   Clear
1:12 AM 37.4 °F 27.2 °F 23.0 °F 56% 30.56 in 10.0 mi West 19.6 mph - N/A   Scattered Clouds
1:32 AM 37.4 °F 27.8 °F 23.0 °F 56% 30.56 in 10.0 mi West 17.3 mph - N/A   Mostly Cloudy
1:52 AM 35.6 °F 26.6 °F 23.0 °F 60% 30.56 in 10.0 mi West 13.8 mph - N/A   Overcast
2:12 AM 35.6 °F 22.7 °F 23.0 °F 60% 30.56 in 10.0 mi West 28.8 mph 36.8 mph N/A   Overcast
2:32 AM 33.8 °F - 30.2 °F 87% 30.57 in 0.2 mi North - - N/A Snow Snow
2:52 AM 33.8 °F 22.5 °F 30.2 °F 87% 30.57 in 0.2 mi West 19.6 mph - N/A Snow Snow
3:32 AM 33.8 °F 23.2 °F 30.2 °F 87% 30.55 in 10.0 mi West 17.3 mph - N/A   Overcast
3:52 AM 33.8 °F 23.2 °F 28.4 °F 81% 30.55 in 10.0 mi West 17.3 mph - N/A   Overcast
4:12 AM 33.8 °F 21.9 °F 26.6 °F 75% 30.55 in 10.0 mi West 21.9 mph - N/A   Mostly Cloudy
4:32 AM 33.8 °F 20.1 °F 30.2 °F 87% 30.54 in 1.2 mi West 29.9 mph 33.4 mph N/A Snow Light Snow
4:52 AM 33.8 °F 21.3 °F 30.2 °F 87% 30.55 in 10.0 mi West 24.2 mph 27.6 mph N/A   Scattered Clouds
5:12 AM 33.8 °F 24.8 °F 28.4 °F 81% 30.56 in 10.0 mi West 12.7 mph - N/A   Clear
5:32 AM 33.8 °F 22.8 °F 28.4 °F 81% 30.55 in 10.0 mi West 18.4 mph - N/A   Clear
5:52 AM 33.8 °F 23.9 °F 26.6 °F 75% 30.56 in 10.0 mi West 15.0 mph - N/A   Clear
6:12 AM 33.8 °F 23.9 °F 26.6 °F 75% 30.56 in 10.0 mi West 15.0 mph - N/A   Clear
6:32 AM 33.8 °F 22.8 °F 26.6 °F 75% 30.56 in 10.0 mi West 18.4 mph - N/A   Clear
6:52 AM 33.8 °F 22.8 °F 26.6 °F 75% 30.56 in 10.0 mi West 18.4 mph - N/A   Clear
7:12 AM 33.8 °F 22.8 °F 26.6 °F 75% 30.57 in 10.0 mi West 18.4 mph - N/A   Clear
7:32 AM 35.6 °F 26.2 °F 26.6 °F 70% 30.57 in 10.0 mi West 15.0 mph 20.7 mph N/A   Mostly Cloudy
7:52 AM 37.4 °F 27.8 °F 26.6 °F 65% 30.57 in 10.0 mi West 17.3 mph 23.0 mph N/A   Mostly Cloudy
8:12 AM 37.4 °F 27.2 °F 26.6 °F 65% 30.57 in 10.0 mi West 19.6 mph 28.8 mph N/A   Mostly Cloudy
8:32 AM 37.4 °F 26.6 °F 28.4 °F 70% 30.58 in 10.0 mi West 21.9 mph 25.3 mph 0.01 in   Clear
8:52 AM 37.4 °F 27.8 °F 28.4 °F 70% 30.58 in 10.0 mi West 17.3 mph 27.6 mph 0.03 in   Clear
9:12 AM 37.4 °F 27.8 °F 26.6 °F 65% 30.58 in 10.0 mi West 17.3 mph 24.2 mph N/A   Clear
9:32 AM 39.2 °F 29.6 °F 26.6 °F 61% 30.58 in 10.0 mi West 19.6 mph 26.5 mph 0.01 in   Clear
9:52 AM 41.0 °F 30.9 °F 26.6 °F 57% 30.58 in 10.0 mi West 24.2 mph 32.2 mph 0.01 in   Scattered Clouds
10:12 AM 42.8 °F 34.3 °F 24.8 °F 49% 30.59 in 10.0 mi West 19.6 mph 29.9 mph N/A   Scattered Clouds
10:32 AM 41.0 °F 31.1 °F 23.0 °F 49% 30.58 in 7.0 mi WNW 23.0 mph 32.2 mph N/A   Mostly Cloudy
10:52 AM 41.0 °F 31.1 °F 23.0 °F 49% 30.59 in 10.0 mi WNW 23.0 mph 32.2 mph N/A   Mostly Cloudy
11:12 AM 41.0 °F 31.1 °F 23.0 °F 49% 30.59 in 10.0 mi West 23.0 mph 31.1 mph N/A   Overcast
11:32 AM 44.6 °F 36.1 °F 23.0 °F 43% 30.59 in 10.0 mi WNW 21.9 mph 33.4 mph N/A   Overcast
11:52 AM 44.6 °F 35.9 °F 23.0 °F 43% 30.59 in 10.0 mi West 23.0 mph 32.2 mph N/A   Mostly Cloudy
12:12 PM 44.6 °F 35.3 °F 23.0 °F 43% 30.58 in 10.0 mi West 26.5 mph 29.9 mph N/A   Mostly Cloudy
12:32 PM 44.6 °F 36.1 °F 21.2 °F 39% 30.59 in 10.0 mi West 21.9 mph 29.9 mph N/A   Mostly Cloudy
12:52 PM 44.6 °F 37.4 °F 21.2 °F 39% 30.59 in 10.0 mi West 16.1 mph 31.1 mph N/A   Scattered Clouds
1:12 PM 44.6 °F 36.6 °F 21.2 °F 39% 30.59 in 10.0 mi West 19.6 mph 26.5 mph N/A   Overcast
1:32 PM 46.4 °F 38.3 °F 21.2 °F 37% 30.59 in 10.0 mi WNW 23.0 mph 32.2 mph N/A   Mostly Cloudy
1:52 PM 46.4 °F 38.3 °F 19.4 °F 34% 30.58 in 10.0 mi WNW 23.0 mph 29.9 mph N/A   Mostly Cloudy
2:12 PM 46.4 °F 37.9 °F 19.4 °F 34% 30.58 in 10.0 mi West 25.3 mph 31.1 mph N/A   Overcast
2:32 PM 48.2 °F - 19.4 °F 32% 30.59 in 10.0 mi WNW 16.1 mph 31.1 mph N/A   Mostly Cloudy
2:52 PM 46.4 °F 38.7 °F 21.2 °F 37% 30.59 in 10.0 mi WNW 20.7 mph 29.9 mph N/A   Mostly Cloudy
3:12 PM 46.4 °F 39.0 °F 23.0 °F 40% 30.59 in 10.0 mi WNW 19.6 mph 29.9 mph N/A   Overcast
3:32 PM 46.4 °F 38.5 °F 21.2 °F 37% 30.59 in 10.0 mi West 21.9 mph 26.5 mph N/A   Mostly Cloudy
3:52 PM 46.4 °F 38.1 °F 21.2 °F 37% 30.59 in 10.0 mi WNW 24.2 mph 32.2 mph N/A   Scattered Clouds
4:12 PM 46.4 °F 38.5 °F 23.0 °F 40% 30.59 in 10.0 mi West 21.9 mph 25.3 mph N/A   Scattered Clouds
4:32 PM 46.4 °F 38.7 °F 23.0 °F 40% 30.59 in 10.0 mi West 20.7 mph 28.8 mph N/A   Scattered Clouds
4:52 PM 46.4 °F 38.3 °F 23.0 °F 40% 30.59 in 10.0 mi West 23.0 mph 32.2 mph N/A   Mostly Cloudy
5:12 PM 46.4 °F 38.7 °F 23.0 °F 40% 30.59 in 10.0 mi West 20.7 mph 31.1 mph N/A   Mostly Cloudy
5:32 PM 46.4 °F 38.3 °F 21.2 °F 37% 30.59 in 10.0 mi West 23.0 mph 32.2 mph N/A   Mostly Cloudy
5:52 PM 48.2 °F - 19.4 °F 32% 30.58 in 10.0 mi West 25.3 mph 31.1 mph N/A   Overcast
6:12 PM 50.0 °F - 21.2 °F 32% 30.59 in 10.0 mi West 17.3 mph 28.8 mph N/A   Mostly Cloudy
6:32 PM 46.4 °F 38.3 °F 21.2 °F 37% 30.58 in 10.0 mi West 23.0 mph 29.9 mph N/A   Overcast
6:52 PM 46.4 °F 38.3 °F 23.0 °F 40% 30.58 in 10.0 mi West 23.0 mph 28.8 mph N/A   Overcast
7:12 PM 46.4 °F 40.7 °F 23.0 °F 40% 30.59 in 10.0 mi West 12.7 mph 25.3 mph N/A   Mostly Cloudy
7:32 PM 44.6 °F 38.8 °F 23.0 °F 43% 30.59 in 10.0 mi West 11.5 mph 17.3 mph N/A   Scattered Clouds
7:52 PM 44.6 °F 37.8 °F 23.0 °F 43% 30.59 in 10.0 mi West 15.0 mph - N/A   Clear
8:12 PM 44.6 °F 37.8 °F 23.0 °F 43% 30.59 in 10.0 mi West 15.0 mph - N/A   Clear
8:32 PM 44.6 °F 37.2 °F 24.8 °F 46% 30.59 in 10.0 mi West 17.3 mph - N/A   Clear
8:52 PM 44.6 °F 36.9 °F 23.0 °F 43% 30.59 in 10.0 mi West 18.4 mph - N/A   Clear
9:12 PM 44.6 °F 37.2 °F 23.0 °F 43% 30.60 in 10.0 mi West 17.3 mph - N/A   Clear
9:32 PM 42.8 °F 37.0 °F 24.8 °F 49% 30.62 in 10.0 mi West 10.4 mph 19.6 mph N/A   Clear
9:52 PM 44.6 °F 38.4 °F 23.0 °F 43% 30.62 in 10.0 mi West 12.7 mph 18.4 mph N/A   Clear
10:12 PM 41.0 °F 36.4 °F 24.8 °F 53% 30.62 in 10.0 mi WSW 6.9 mph 18.4 mph N/A   Clear
10:32 PM 41.0 °F 34.7 °F 24.8 °F 53% 30.62 in 10.0 mi West 10.4 mph 19.6 mph N/A   Clear
10:52 PM 41.0 °F 32.8 °F 24.8 °F 53% 30.62 in 10.0 mi West 16.1 mph 21.9 mph N/A   Clear
11:12 PM 41.0 °F 33.5 °F 23.0 °F 49% 30.62 in 10.0 mi WSW 13.8 mph 19.6 mph N/A   Clear
11:32 PM 42.8 °F 35.1 °F 24.8 °F 49% 30.62 in 10.0 mi WSW 16.1 mph 24.2 mph N/A   Clear
11:52 PM 42.8 °F 34.5 °F 26.6 °F 53% 30.62 in 10.0 mi West 18.4 mph 25.3 mph N/A   Clear